Regional Weather Roundup
Issued by NWS

Home | Current Version | Previous Version | Text Only | Print | Product List | Glossary On
Versions: 1 2 3 4 5 6 7 8 9 10 11 12 13 14 15 16 17 18 19 20 21 22 23 24 25 26 27 28 29 30 31 32 33 34 35 36 37 38 39 40 41 42 43 44 45 46 47 48 49 50
677
ASUS43 KMKX 110200
RWRWI

WISCONSIN REGIONAL WEATHER ROUNDUP
NATIONAL WEATHER SERVICE MILWAUKEE/SULLIVAN WI
800 PM CST SAT DEC 10 2016

NOTE: "FAIR" INDICATES FEW OR NO CLOUDS BELOW 12,000 FEET WITH NO
SIGNIFICANT WEATHER AND/OR OBSTRUCTIONS TO VISIBILITY.

WIZ001-002-006>008-014>016-023>028-110300-
NORTHWEST WISCONSIN

CITY           SKY/WX    TMP DP  RH WIND       PRES   REMARKS
SUPERIOR ARPT  PTCLDY     8   2  77 CALM      30.29F
ASHLAND        CLOUDY     6   1  80 CALM      30.30F
HAYWARD        CLOUDY    10   3  73 CALM      30.24F
SIREN          CLOUDY    11   2  68 CALM      30.25S
CUMBERLAND     CLOUDY    10   3  72 E6        30.22F WCI   1
RICE LAKE      CLOUDY    12   5  73 E6        30.26S WCI   3
CHETEK         CLOUDY    11   5  74 SE5       30.25F WCI   3
LADYSMITH      CLOUDY    11   5  75 SE5       30.26F WCI   3
EAU CLAIRE     LGT SNOW  12   8  84 SE6       30.26F FOG     WCI   3
MENOMONIE      LGT SNOW  14  11  87 E8        30.25F WCI   2
NEW RICHMOND   LGT SNOW  11   7  81 SE5       30.24F WCI   3
OSCEOLA        LGT SNOW  12   8  82 SE9       30.28S WCI   0
$$

WIZ003>005-009-010-017-018-110300-
NORTH CENTRAL WISCONSIN

CITY           SKY/WX    TMP DP  RH WIND       PRES   REMARKS
MANITOWISH WTR CLOUDY    -3  -6  90 CALM      30.23S
ARBOR VITAE    CLOUDY     1  -2  84 CALM      30.23F
WOODRUFF       CLOUDY     1  -2  84 CALM      30.23F
RHINELANDER    CLOUDY     8   1  73 CALM      30.23F
EAGLE RIVER    CLOUDY     0  -4  83 CALM      30.23F
LAND O LAKES   CLOUDY    -4  -8  84 CALM      30.24F
PHILLIPS       CLOUDY     5   1  86 SE5       30.22F WCI  -4
TOMAHAWK       CLOUDY     6   1  82 CALM      30.25F
MEDFORD        CLOUDY     9   2  73 SE3       30.23F
MERRILL        MOCLDY    10   4  75 CALM      30.26F
$$

WIZ029-030-035-036-043>047-110300-
CENTRAL WISCONSIN

CITY           SKY/WX    TMP DP  RH WIND       PRES   REMARKS
WAUSAU         CLOUDY    10   3  73 E6        30.26F WCI   0
MOSINEE        LGT SNOW  10   9  92 CALM      30.27F
MARSHFIELD     LGT SNOW  12   8  84 SE6       30.24F FOG     WCI   3
STEVENS POINT  MIX PCPN  12   8  87 CALM      30.30S
WAUPACA        LGT SNOW  17  12  80 CALM      30.32F
WAUTOMA        LGT SNOW  15  13  91 CALM      30.31F FOG
WISC RAPIDS    LGT SNOW  14  12  92 SE3       30.29F FOG
CAMP DOUGLAS   LGT SNOW  16  12  86 E6        30.28F FOG     WCI   7
$$

WIZ011>013-019>022-031-037>040-048>050-110300-
NORTHEAST WISCONSIN

CITY           SKY/WX    TMP DP  RH WIND       PRES   REMARKS
ANTIGO         PTCLDY     8   2  78 CALM      30.25F
SHAWANO        CLOUDY    16   6  65 CALM      30.32F
OCONTO         CLOUDY    11   6  81 CALM      30.34F
STURGEON BAY   CLOUDY    14   7  73 S3        30.34F
GREEN BAY      CLOUDY    19   9  65 W5        30.33F WCI  12
MANITOWOC      NOT AVBL
APPLETON       LGT SNOW  16   9  73 SW5       30.30F WCI   9
CLINTONVILLE   CLOUDY    18   7  62 CALM      30.32F
OSHKOSH        LGT SNOW  17  12  80 S3        30.31F
$$

WIZ032>034-041-042-053>061-110300-
SOUTHWEST WISCONSIN

CITY           SKY/WX    TMP DP  RH WIND       PRES   REMARKS
LA CROSSE      LGT SNOW  17  12  80 SE7       30.27F WCI   8
SPARTA         LGT SNOW  16  14  92 E5        30.28F WCI   8
VIROQUA        CLOUDY    15  13  93 E8        30.22F WCI   4
BOSCOBEL       LGT SNOW  20  16  84 NE5       30.27F FOG     WCI  13
PRAIRIE DU CHI LGT SNOW  20  17  86 E5        30.26F WCI  14
PLATTEVILLE    CLOUDY    21  20  98 E8        30.25F WCI  11
$$

WIZ056-057-062-063-064-067-068-110300-
SOUTH CENTRAL WISCONSIN

CITY           SKY/WX    TMP DP  RH WIND       PRES   REMARKS
REEDSBURG      LGT SNOW  17  16  95 CALM      30.27F
BARABOO/DELLS  SNOW      17  15  90 E5        30.28F VSB 1/2 WCI  10
LONE ROCK      NOT AVBL
MINERAL POINT  LGT SNOW  21  21 100 SE7       30.24F WCI  13
MADISON        LGT SNOW  19  16  88 SE6       30.29F VSB 1   WCI  11
MIDDLETON      CLOUDY    21  19  91 SE6       30.28F WCI  13
WATERTOWN      LGT SNOW  19  19 100 SE3       30.30F
MONROE         LGT SNOW  21  19  93 SE7       30.26F WCI  13
JANESVILLE     LGT SNOW  21  21 100 SE8       30.29F WCI  12
$$

WIZ051-052-058>065-066-070>072-110300-
SOUTHEAST WISCONSIN

CITY           SKY/WX    TMP DP  RH WIND       PRES   REMARKS
MILWAUKEE      LGT SNOW  22  17  81 S6        30.33F WCI  14
WAUKESHA       LGT SNOW  18  16  93 SE5       30.33F WCI  11
MILWAUKEE/TIMM LGT SNOW  19  16  86 CALM      30.34F
RACINE         LGT SNOW  21  17  84 SW5       30.35F FOG     WCI  15
BURLINGTON     LGT SNOW  25  23  94 CALM      30.33F
KENOSHA        LGT SNOW  21  18  88 S6        30.34F VSB 1   WCI  13
FOND DU LAC    LGT SNOW  18  12  77 SE3       30.31F
SHEBOYGAN      LGT SNOW  18  12  77 CALM      30.33F
WEST BEND      LGT SNOW  19  18  93 CALM      30.32F
JUNEAU         LGT SNOW  18  16  90 SE5       30.32F WCI  11
$$

LSZ147-162-110300-
LAKE SUPERIOR

STATION/POSITION TIME  TEMP    WIND        PRES    WAVE
                       AIR SEA DIR/SP/G            HT/PER
                 (UTC) (F)     (DEG/KT/KT) (MB)    (FT/S)
DEVILS ISLAND    0100   13     190/ 10/ 13 1027.6F
PORT WING        0040    6     130/  2/  6 1026.8F
SAXON HARBOR     0040    1     170/  4/  5 1026.8F
$$

LMZ867-665-643>646-110300-
LAKE MICHIGAN

STATION/POSITION TIME  TEMP    WIND        PRES    WAVE
                       AIR SEA DIR/SP/G            HT/PER
                 (UTC) (F)     (DEG/KT/KT) (MB)    (FT/S)
CHAMBERS ISLAND  0040   18     220/  6/  9 1027.1S
NORTHPORT PIER   0101   16     190/  1/  5 1027.1
SISTER BAY       0120   17     190/ 11/ 12   N/A
ALGOMA LAKESHORE 0036          260/  4/  6   N/A
KEWAUNEE LAKESHO 0130   17     350/  5/ 16 1027.2F
SHEBOYGAN LAKESH 0100   19     270/  6/  7 1029.2F
PORT WASHINGTON  0040   21     260/  4/  7 1029.5F
KENOSHA   LAKESH 0100   21     210/  3/  5 1028.4
$$

TC  - TEMPERATURE IN CELSIUS
VSB - VISIBILITY IN STATUTE MILES
WCI - WIND CHILL INDEX
HX  - HEAT INDEX





USA.gov is the U.S. government's official web portal to all federal, state and local government web resources and services.